W7YP Weather Reports


Display with metric or nautical units.
time (UTC)temp
F
wind
direction
speed
MPH
gust
MPH
rain 1hr
in
rain 24hr
in
rain mn
in
humidity
%
barometer
mb
20260901034328 51 25 0.0 0.0 0.00 0.00 0.00 87 1015.7
20260901033828 51 25 0.0 0.0 0.00 0.00 0.00 87 1015.8
20260901033329 52 25 0.0 0.0 0.00 0.00 0.00 87 1015.8
20260901032823 52 25 0.0 0.0 0.00 0.00 0.00 87 1015.8
20260901032321 52 25 0.0 0.0 0.00 0.00 0.00 87 1015.6
20260901031806 52 25 0.0 0.0 0.00 0.00 0.00 87 1015.6
20260901031254 53 25 0.0 0.0 0.00 0.00 0.00 86 1015.5
20260901031013 53 25 0.0 0.0 0.00 0.00 0.00 86 1015.5
20260901030254 53 25 0.0 0.0 0.00 0.00 0.00 86 1015.5
20260901030018 53 25 0.0 1.0 0.00 0.00 0.00 86 1015.5
20260901025505 53 25 0.0 1.0 0.00 0.00 0.00 86 1015.4
20260901024745 53 26 0.0 0.0 0.00 0.00 0.00 85 1015.4
20260901024242 54 26 0.0 0.0 0.00 0.00 0.00 85 1015.4
20260901023727 54 26 0.0 0.0 0.00 0.00 0.00 85 1015.4
20260901023441 54 26 0.0 0.0 0.00 0.00 0.00 84 1015.4
20260901022714 55 26 0.0 0.0 0.00 0.00 0.00 83 1015.3
20260901022215 55 26 0.0 0.0 0.00 0.00 0.00 83 1015.3
20260901021718 55 26 0.0 0.0 0.00 0.00 0.00 83 1015.4
20260901021215 55 26 0.0 0.0 0.00 0.00 0.00 83 1015.4
20260901020705 56 26 0.0 2.0 0.00 0.00 0.00 83 1015.5
20260901020208 56 26 0.0 2.0 0.00 0.00 0.00 81 1015.4
20260901015705 57 24 0.0 0.0 0.00 0.00 0.00 80 1015.5
20260901015206 57 24 0.0 0.0 0.00 0.00 0.00 79 1015.5
20260901014656 57 24 0.0 0.0 0.00 0.00 0.00 79 1015.5
20260901014156 58 24 0.0 0.0 0.00 0.00 0.00 79 1015.6
20260901013922 58 24 0.0 0.0 0.00 0.00 0.00 78 1015.6
20260901013152 59 24 0.0 0.0 0.00 0.00 0.00 78 1015.7
20260901012909 59 24 0.0 0.0 0.00 0.00 0.00 78 1015.6
20260901012147 60 24 0.0 0.0 0.00 0.00 0.00 78 1015.6
20260901011642 60 24 0.0 0.0 0.00 0.00 0.00 77 1015.6
20260901011135 61 24 0.0 0.0 0.00 0.00 0.00 75 1015.7
20260901010630 62 24 0.0 0.0 0.00 0.00 0.00 73 1015.7
20260901010357 63 24 0.0 0.0 0.00 0.00 0.00 72 1015.7
20260901005622 64 24 0.0 0.0 0.00 0.00 0.00 70 1015.7
20260901005125 65 24 0.0 0.0 0.00 0.00 0.00 66 1015.7
20260901004602 65 24 0.0 0.0 0.00 0.00 0.00 64 1015.8
20260901004058 66 24 0.0 0.0 0.00 0.00 0.00 62 1015.8
20260901003556 67 24 0.0 0.0 0.00 0.00 0.00 60 1015.8
20260901003053 68 24 0.0 0.0 0.00 0.00 0.00 60 1015.9
20260901002553 69 24 0.0 0.0 0.00 0.00 0.00 59 1015.9
20260901002056 69 24 0.0 0.0 0.00 0.00 0.00 61 1015.9
20260901001551 69 24 0.0 0.0 0.00 0.00 0.00 59 1016.0
20260901001039 69 24 0.0 0.0 0.00 0.00 0.00 59 1015.9
20260901000534 70 24 0.0 0.0 0.00 0.00 0.00 57 1015.9
20260901000031 70 24 0.0 1.0 0.00 0.00 0.00 54 1015.9
20260831235524 70 24 0.0 1.0 0.00 0.00 0.00 53 1015.9
20260831235024 70 26 0.0 3.0 0.00 0.00 0.00 51 1015.9
20260831234524 70 26 0.0 3.0 0.00 0.00 0.00 49 1016.0
20260831234024 70 325 0.0 2.0 0.00 0.00 0.00 52 1015.9
20260831233520 70 325 0.0 2.0 0.00 0.00 0.00 48 1016.0
20260831233240 71 201 0.0 3.0 0.00 0.00 0.00 45 1016.0
20260831233114 70 328 0.0 3.0 0.00 0.00 0.00 47 1016.0
20260831232020 71 161 0.0 2.0 0.00 0.00 0.00 46 1016.2
20260831231520 71 317 0.0 3.0 0.00 0.00 0.00 47 1016.3
20260831231020 71 317 0.0 5.0 0.00 0.00 0.00 46 1016.3
20260831230516 71 344 2.0 5.0 0.00 0.00 0.00 46 1016.4
20260831230241 71 304 1.0 5.0 0.00 0.00 0.00 45 1016.4
20260831225517 71 331 0.0 1.0 0.00 0.00 0.00 46 1016.5
20260831225015 70 317 0.0 3.0 0.00 0.00 0.00 47 1016.4
20260831224516 71 317 0.0 3.0 0.00 0.00 0.00 44 1016.4
20260831224016 71 280 0.0 3.0 0.00 0.00 0.00 47 1016.4
20260831223512 71 296 0.0 3.0 0.00 0.00 0.00 47 1016.4
20260831223010 71 327 0.0 3.0 0.00 0.00 0.00 45 1016.4
20260831222504 71 327 0.0 4.0 0.00 0.00 0.00 46 1016.5
20260831222002 71 332 0.0 4.0 0.00 0.00 0.00 45 1016.6
20260831221502 71 318 0.0 3.0 0.00 0.00 0.00 44 1016.6
20260831220957 71 287 0.0 4.0 0.00 0.00 0.00 45 1016.7
20260831220719 71 287 0.0 4.0 0.00 0.00 0.00 45 1016.8
20260831215957 71 237 0.0 1.0 0.00 0.00 0.00 44 1016.7
20260831215453 71 237 0.0 5.0 0.00 0.00 0.00 43 1016.8
20260831214947 71 275 0.0 5.0 0.00 0.00 0.00 44 1016.8
20260831214711 71 20 0.0 4.0 0.00 0.00 0.00 43 1016.9
20260831213948 71 336 1.0 4.0 0.00 0.00 0.00 44 1016.9
20260831213448 71 188 1.0 4.0 0.00 0.00 0.00 44 1017.2
20260831212948 71 98 0.0 8.0 0.00 0.00 0.00 45 1017.2
20260831212443 71 224 0.0 8.0 0.00 0.00 0.00 49 1017.3
20260831211946 71 312 0.0 3.0 0.00 0.00 0.00 49 1017.3
20260831211444 71 195 0.0 5.0 0.00 0.00 0.00 47 1017.3
20260831210944 70 143 1.0 5.0 0.00 0.00 0.00 46 1017.4
20260831210444 70 318 0.0 4.0 0.00 0.00 0.00 45 1017.4
20260831205944 70 92 0.0 7.0 0.00 0.00 0.00 44 1017.5
20260831205447 70 5 2.0 7.0 0.00 0.00 0.00 45 1017.6
20260831204942 71 128 1.0 3.0 0.00 0.00 0.00 48 1017.6
20260831204432 70 310 0.0 3.0 0.00 0.00 0.00 48 1017.6
20260831203927 70 117 0.0 3.0 0.00 0.00 0.00 46 1017.7
20260831203644 70 211 0.0 3.0 0.00 0.00 0.00 48 1017.8
20260831202919 70 182 0.0 6.0 0.00 0.00 0.00 46 1017.8
20260831202414 70 180 1.0 6.0 0.00 0.00 0.00 46 1018.1
20260831201915 70 230 0.0 6.0 0.00 0.00 0.00 50 1017.9
20260831201415 69 214 0.0 6.0 0.00 0.00 0.00 47 1018.1
20260831201135 69 5 0.0 2.0 0.00 0.00 0.00 48 1018.2
20260831200410 69 0 0.0 2.0 0.00 0.00 0.00 49 1018.2
20260831195913 69 355 0.0 3.0 0.00 0.00 0.00 52 1018.3
20260831195411 69 22 0.0 3.0 0.00 0.00 0.00 51 1018.3
20260831194912 69 135 0.0 3.0 0.00 0.00 0.00 51 1018.4
20260831194412 68 144 0.0 9.0 0.00 0.00 0.00 51 1018.5
20260831193902 68 307 0.0 9.0 0.00 0.00 0.00 55 1018.6
20260831193356 68 24 0.0 8.0 0.00 0.01 0.00 51 1018.7
20260831193122 68 41 0.0 8.0 0.00 0.01 0.00 50 1018.7
20260831192357 68 130 0.0 5.0 0.00 0.01 0.00 49 1018.7
20260831191852 68 290 1.0 6.0 0.00 0.01 0.00 51 1018.8
20260831191353 68 182 0.0 6.0 0.00 0.02 0.00 53 1018.9
20260831190848 67 44 0.0 7.0 0.00 0.02 0.00 54 1018.9
20260831190347 67 57 1.0 7.0 0.00 0.02 0.00 49 1019.1
20260831190101 67 273 1.0 3.0 0.00 0.03 0.00 53 1019.1
20260831185333 67 301 0.0 4.0 0.00 0.04 0.00 55 1019.1
20260831184833 67 301 1.0 5.0 0.00 0.05 0.00 50 1019.2
20260831184551 67 235 1.0 5.0 0.00 0.06 0.00 53 1019.3
20260831183828 66 326 0.0 3.0 0.00 0.06 0.00 55 1019.3
20260831183323 66 11 0.0 2.0 0.00 0.07 0.00 56 1019.4
20260831182824 65 21 0.0 5.0 0.00 0.08 0.00 59 1019.4
20260831182545 65 11 0.0 5.0 0.00 0.09 0.00 57 1019.4
20260831181824 65 314 0.0 3.0 0.00 0.10 0.00 60 1019.5
20260831181324 65 309 0.0 4.0 0.00 0.11 0.00 59 1019.6
20260831180814 64 340 0.0 4.0 0.00 0.12 0.00 61 1019.7
20260831180312 64 314 1.0 3.0 0.00 0.12 0.00 61 1019.6
20260831175802 64 59 0.0 3.0 0.00 0.14 0.00 62 1019.7
20260831175521 63 269 0.0 3.0 0.00 0.15 0.00 64 1019.6
20260831174755 63 270 0.0 3.0 0.00 0.16 0.00 60 1019.8
20260831174249 64 213 0.0 0.0 0.00 0.17 0.00 61 1019.8
20260831173750 63 213 0.0 0.0 0.00 0.18 0.00 63 1019.8
20260831173250 63 213 0.0 0.0 0.00 0.19 0.00 67 1019.8
20260831172748 63 213 0.0 1.0 0.00 0.21 0.00 72 1019.8
20260831172239 63 213 0.0 1.0 0.00 0.22 0.00 70 1019.8
20260831172218 63 203 0.0 1.0 0.00 0.23 0.00 74 1019.8
20260831171226 62 188 0.0 1.0 0.00 0.23 0.00 77 1019.8
20260831170715 62 188 0.0 1.0 0.00 0.24 0.00 75 1019.9
20260831170216 61 186 0.0 2.0 0.00 0.26 0.00 70 1019.9
20260831165717 61 186 0.0 2.0 0.00 0.27 0.00 70 1019.9
20260831165211 60 157 0.0 1.0 0.00 0.28 0.00 73 1019.9
20260831164937 60 157 0.0 1.0 0.00 0.29 0.00 74 1020.1
20260831164207 60 157 0.0 0.0 0.00 0.30 0.00 75 1019.9
20260831163706 59 157 0.0 1.0 0.00 0.31 0.00 78 1019.9
20260831163207 59 157 0.0 2.0 0.00 0.32 0.00 82 1019.9
20260831162707 59 158 0.0 2.0 0.00 0.33 0.00 80 1019.9
20260831162207 58 276 0.0 2.0 0.00 0.34 0.00 84 1019.9
20260831161935 57 277 0.0 0.0 0.00 0.34 0.00 87 1020.1
20260831161203 57 277 0.0 0.0 0.00 0.35 0.00 90 1019.9
20260831160703 56 277 0.0 2.0 0.00 0.36 0.00 92 1020.1
20260831160203 55 277 0.0 2.0 0.00 0.36 0.00 95 1019.9
20260831155703 55 277 0.0 2.0 0.00 0.37 0.00 96 1020.1
20260831155203 54 278 0.0 1.0 0.00 0.38 0.00 97 1020.1
20260831154900 54 278 0.0 2.0 0.00 0.38 0.00 97 1020.2
20260831154413 53 277 0.0 2.0 0.00 0.38 0.00 98 1020.1
20260831153854 53 279 0.0 0.0 0.00 0.38 0.00 98 1019.9
20260831153134 53 279 0.0 2.0 0.00 0.38 0.00 98 1019.9
20260831152634 53 279 0.0 3.0 0.00 0.38 0.00 98 1020.1
20260831152137 53 292 0.0 3.0 0.00 0.38 0.00 98 1019.9
20260831151630 52 292 0.0 0.0 0.00 0.38 0.00 98 1020.1
20260831151124 52 292 0.0 0.0 0.00 0.39 0.00 98 1020.1
20260831150622 51 292 0.0 0.0 0.00 0.39 0.00 98 1019.9
20260831150109 51 292 0.0 0.0 0.00 0.39 0.00 98 1019.9
20260831145609 51 292 0.0 0.0 0.00 0.39 0.00 98 1019.8
20260831145055 50 292 0.0 0.0 0.00 0.39 0.00 98 1019.8
20260831144555 50 292 0.0 0.0 0.00 0.39 0.00 98 1019.8
20260831144050 50 292 0.0 0.0 0.00 0.39 0.00 98 1019.9
20260831143550 49 292 0.0 0.0 0.00 0.40 0.00 98 1019.8
20260831143040 49 292 0.0 0.0 0.00 0.40 0.00 98 1019.8
20260831142536 49 292 0.0 0.0 0.00 0.40 0.00 98 1019.7
20260831142254 49 292 0.0 0.0 0.00 0.41 0.00 98 1019.7
20260831141531 49 292 0.0 0.0 0.00 0.41 0.00 98 1019.6
20260831141030 48 292 0.0 0.0 0.00 0.41 0.00 98 1019.6
20260831140531 48 292 0.0 0.0 0.00 0.41 0.00 98 1019.5
20260831140030 48 292 0.0 0.0 0.00 0.41 0.00 98 1019.5
20260831140013 48 292 0.0 0.0 0.00 0.41 0.00 97 1019.5
20260831135035 48 292 0.0 0.0 0.00 0.41 0.00 97 1019.5
20260831134530 48 292 0.0 0.0 0.00 0.42 0.00 97 1019.4
20260831134027 48 292 0.0 0.0 0.00 0.42 0.00 97 1019.3
20260831133527 48 292 0.0 0.0 0.00 0.42 0.00 97 1019.3
20260831133017 48 292 0.0 0.0 0.00 0.43 0.00 97 1019.3
20260831132512 47 292 0.0 0.0 0.00 0.43 0.00 97 1019.3
20260831132012 47 292 0.0 0.0 0.00 0.43 0.00 97 1019.3
20260831131508 47 292 0.0 0.0 0.00 0.43 0.00 97 1019.3
20260831131008 48 292 0.0 0.0 0.00 0.43 0.00 97 1019.3
20260831130503 48 292 0.0 0.0 0.00 0.43 0.00 97 1019.3
20260831130004 48 292 0.0 0.0 0.00 0.43 0.00 97 1019.2
20260831125503 48 292 0.0 0.0 0.00 0.43 0.00 97 1019.2
20260831125004 48 292 0.0 0.0 0.00 0.43 0.00 97 1019.2
20260831124503 48 292 0.0 0.0 0.00 0.43 0.00 97 1019.1
20260831124002 48 292 0.0 0.0 0.00 0.43 0.00 97 1019.1
20260831123444 48 292 0.0 0.0 0.00 0.43 0.00 97 1019.1
20260831122939 48 292 0.0 0.0 0.00 0.43 0.00 97 1019.2
20260831122433 48 292 0.0 0.0 0.00 0.43 0.00 97 1019.1
20260831121936 48 292 0.0 0.0 0.00 0.43 0.00 97 1019.1
20260831121429 48 292 0.0 0.0 0.00 0.43 0.00 97 1019.1
20260831120932 48 292 0.0 0.0 0.00 0.43 0.00 97 1018.9
20260831120419 48 292 0.0 0.0 0.00 0.43 0.00 97 1019.1
20260831115909 48 292 0.0 0.0 0.00 0.43 0.00 97 1018.9
20260831115407 48 292 0.0 0.0 0.00 0.43 0.00 97 1018.9
20260831115345 48 292 0.0 0.0 0.00 0.43 0.00 97 1018.9
20260831114354 48 292 0.0 0.0 0.00 0.43 0.00 97 1019.1
20260831113850 48 292 0.0 0.0 0.00 0.43 0.00 97 1018.9
20260831113339 48 292 0.0 0.0 0.00 0.43 0.00 97 1018.9
20260831112843 48 292 0.0 0.0 0.00 0.43 0.00 97 1018.8
20260831112551 48 292 0.0 0.0 0.00 0.43 0.00 97 1018.8
20260831111830 48 292 0.0 0.0 0.00 0.43 0.00 97 1018.8
20260831111551 48 292 0.0 0.0 0.00 0.43 0.00 97 1018.8
20260831110825 48 292 0.0 0.0 0.00 0.43 0.00 97 1018.7
20260831110325 48 292 0.0 0.0 0.00 0.43 0.00 97 1018.8
20260831105826 48 292 0.0 0.0 0.00 0.43 0.00 97 1018.8
20260831105329 48 292 0.0 0.0 0.00 0.43 0.00 97 1018.7
20260831104826 48 292 0.0 0.0 0.00 0.43 0.00 97 1018.6
20260831104322 48 292 0.0 0.0 0.00 0.43 0.00 97 1018.7
20260831103819 48 292 0.0 0.0 0.00 0.43 0.00 97 1018.8
20260831103316 48 292 0.0 0.0 0.00 0.43 0.00 97 1018.8
20260831103013 48 292 0.0 0.0 0.00 0.43 0.00 97 1018.8
20260831102251 48 292 0.0 0.0 0.00 0.43 0.00 97 1018.7
20260831101746 48 292 0.0 0.0 0.00 0.43 0.00 97 1018.6
20260831101247 48 292 0.0 0.0 0.00 0.43 0.00 97 1018.6
20260831100742 48 292 0.0 0.0 0.00 0.43 0.00 97 1018.6
20260831100233 48 292 0.0 0.0 0.00 0.43 0.00 97 1018.5
20260831095727 48 292 0.0 0.0 0.00 0.43 0.00 97 1018.5
20260831095227 48 292 0.0 0.0 0.00 0.43 0.00 97 1018.6
20260831094948 48 292 0.0 0.0 0.00 0.43 0.00 97 1018.5
20260831094448 48 292 0.0 0.0 0.00 0.43 0.00 97 1018.6
20260831093723 48 292 0.0 0.0 0.00 0.43 0.00 97 1018.6
20260831093223 48 292 0.0 0.0 0.00 0.43 0.00 97 1018.6
20260831092726 48 292 0.0 0.0 0.00 0.43 0.00 97 1018.6
20260831092706 48 292 0.0 0.0 0.00 0.43 0.00 97 1018.6
20260831091708 48 292 0.0 0.0 0.00 0.43 0.00 97 1018.6
20260831091208 48 292 0.0 0.0 0.00 0.43 0.00 97 1018.5
20260831090709 48 292 0.0 0.0 0.00 0.43 0.00 97 1018.5
20260831090436 48 292 0.0 0.0 0.00 0.43 0.00 97 1018.5
20260831085710 48 292 0.0 0.0 0.00 0.43 0.00 97 1018.5
20260831085210 48 292 0.0 0.0 0.00 0.43 0.00 97 1018.5
20260831084709 48 292 0.0 0.0 0.00 0.43 0.00 97 1018.4
20260831084159 48 292 0.0 0.0 0.00 0.43 0.00 97 1018.5
20260831083650 48 292 0.0 0.0 0.00 0.43 0.00 97 1018.4
20260831083153 48 292 0.0 0.0 0.00 0.43 0.00 97 1018.3
20260831082650 48 292 0.0 0.0 0.00 0.43 0.00 97 1018.3
20260831082145 48 292 0.0 0.0 0.00 0.43 0.00 97 1018.3
20260831081645 48 292 0.0 0.0 0.00 0.43 0.00 97 1018.3
20260831081141 48 292 0.0 0.0 0.00 0.43 0.00 97 1018.2
20260831080644 48 292 0.0 0.0 0.00 0.43 0.00 97 1018.1
20260831080353 48 292 0.0 0.0 0.00 0.43 0.00 97 1018.2
20260831075856 48 292 0.0 0.0 0.00 0.43 0.00 97 1018.1
20260831075131 48 292 0.0 0.0 0.00 0.43 0.00 97 1018.1
20260831074631 48 292 0.0 0.0 0.00 0.43 0.00 97 1018.1
20260831074126 48 292 0.0 0.0 0.00 0.43 0.00 97 1018.2
20260831073846 48 292 0.0 0.0 0.00 0.43 0.00 97 1018.3
20260831073117 48 292 0.0 0.0 0.00 0.43 0.00 97 1018.2
20260831072617 48 292 0.0 2.0 0.00 0.43 0.00 97 1018.1
20260831072120 48 292 0.0 2.0 0.00 0.43 0.00 97 1017.9
20260831071844 48 292 0.0 0.0 0.00 0.43 0.00 97 1017.8
20260831071108 48 292 0.0 0.0 0.00 0.43 0.00 97 1017.9
20260831070558 48 292 0.0 0.0 0.00 0.43 0.00 97 1017.9
20260831070056 48 292 0.0 0.0 0.00 0.43 0.00 97 1017.9
20260831065545 48 292 0.0 0.0 0.00 0.43 0.00 97 1018.2
20260831065246 48 292 0.0 0.0 0.00 0.43 0.00 97 1018.2
20260831064528 48 292 0.0 0.0 0.00 0.43 0.00 97 1018.2
20260831064028 48 292 0.0 0.0 0.00 0.43 0.00 97 1018.2
20260831063750 48 292 0.0 0.0 0.00 0.43 0.00 97 1018.2
20260831063019 48 292 0.0 0.0 0.00 0.43 0.00 97 1018.2
20260831062518 48 292 0.0 0.0 0.00 0.43 0.00 97 1018.3
20260831062014 48 292 0.0 0.0 0.00 0.43 0.00 97 1018.3
20260831061509 48 292 0.0 0.0 0.00 0.43 0.00 97 1018.3
20260831061003 48 292 0.0 0.0 0.00 0.43 0.00 97 1018.3
20260831060459 48 292 0.0 0.0 0.00 0.43 0.00 97 1018.2
20260831060002 48 292 0.0 0.0 0.00 0.43 0.43 97 1018.3
20260831055454 48 292 0.0 0.0 0.00 0.43 0.43 97 1018.5
20260831054954 48 292 0.0 0.0 0.00 0.43 0.43 97 1018.5
20260831054713 48 292 0.0 1.0 0.00 0.43 0.43 97 1018.5
20260831053949 48 292 0.0 1.0 0.00 0.43 0.43 97 1018.6
20260831053447 48 292 0.0 3.0 0.00 0.43 0.43 97 1018.6
20260831052945 49 292 0.0 3.0 0.00 0.43 0.43 97 1018.6
20260831052445 49 292 0.0 0.0 0.00 0.43 0.43 97 1018.7
20260831052207 48 292 0.0 0.0 0.00 0.43 0.43 97 1018.6
20260831051927 48 292 0.0 0.0 0.00 0.43 0.43 97 1018.6
20260831050933 48 292 0.0 0.0 0.00 0.43 0.43 97 1018.7
20260831050431 48 292 0.0 0.0 0.00 0.43 0.43 97 1018.7
20260831045926 48 292 0.0 0.0 0.00 0.43 0.43 97 1018.8
20260831045421 48 292 0.0 0.0 0.00 0.43 0.43 97 1018.9
20260831044916 48 292 0.0 0.0 0.00 0.43 0.43 97 1018.9
20260831044416 48 292 0.0 0.0 0.00 0.43 0.43 97 1018.8
20260831043917 48 292 0.0 0.0 0.00 0.43 0.43 97 1018.7
20260831043634 48 292 0.0 0.0 0.00 0.43 0.43 97 1018.7
20260831042911 48 292 0.0 0.0 0.00 0.43 0.43 97 1018.7
20260831042406 48 292 0.0 0.0 0.00 0.43 0.43 97 1018.7
20260831041903 48 292 0.0 0.0 0.00 0.43 0.43 97 1018.7
20260831041631 48 292 0.0 1.0 0.00 0.43 0.43 97 1018.6
20260831040857 48 292 0.0 1.0 0.00 0.43 0.43 97 1018.6
20260831040628 48 292 0.0 0.0 0.00 0.43 0.43 97 1018.5
20260831035843 48 292 0.0 0.0 0.00 0.43 0.43 97 1018.6
20260831035829 48 292 0.0 0.0 0.00 0.43 0.43 97 1018.7
20260831034828 48 292 0.0 0.0 0.00 0.43 0.43 97 1018.6